Easton, MD

3:16 AM EDT on September 17, 2019 (GMT -0400)
Easton / Newnam

Weather History for KESN - July, 2019

Change the Weather History Date:

Tuesday, July 23, 2019

  Actual Average Record
Temperature  
Mean Temperature 76 °F -  
Max Temperature 83 °F 86 °F 101 °F (1952)
Min Temperature 69 °F 65 °F 33 °F (2006)
Cooling Degree Days 11    
Growing Degree Days 26 (Base 50)    
Moisture  
Dew Point 69 °F    
Average Humidity 85    
Maximum Humidity 100    
Minimum Humidity 60    
Precipitation  
Precipitation 0.00 in - - ()
Sea Level Pressure  
Sea Level Pressure 29.87 in    
Wind  
Wind Speed 8 mph (WSW)    
Max Wind Speed 18 mph    
Max Gust Speed 25 mph    
Visibility 9 miles    
Events Rain    
Averages and records for this station are not official NWS values.
T = Trace of Precipitation, MM = Missing Value Source: NWS Daily Summary

Daily Weather History Graph

Daily Weather History Graph

Search for Another Location

Airport or City:

Astronomy

Jul. 23, 2019 Rise Set
Actual Time 5:57 AM EDT 8:23 PM EDT
Civil Twilight 5:27 AM EDT 8:53 PM EDT
Nautical Twilight 4:49 AM EDT 9:31 PM EDT
Astronomical Twilight 4:07 AM EDT 10:12 PM EDT
Moon No Moon Rise 12:05 PM EDT (7/23)
Length of Visible Light 15h 26m
Length of Day
14h 25m
Waning Gibbous, 63% of the Moon is Illuminated
Jul 23
Waning Gibbous
Jul 24
Last Quarter
Jul 31
New
Aug 7
First Quarter
Aug 15
Full

Hourly Weather History & Observations

Time (EDT) Temp. Heat Index Dew Point Humidity Pressure Visibility Wind Dir Wind Speed Gust Speed Precip Events Conditions
12:00 AM 82.9 °F 85.8 °F 67.8 °F 60% 29.82 in 10.0 mi SW 9.2 mph - N/A   Clear
12:20 AM 83.3 °F 86.4 °F 68.0 °F 60% 29.82 in 10.0 mi SW 8.1 mph - N/A   Scattered Clouds
12:40 AM 83.5 °F 86.7 °F 68.2 °F 60% 29.82 in 10.0 mi SW 8.1 mph - N/A   Scattered Clouds
1:20 AM 82.9 °F 87.2 °F 70.3 °F 66% 29.82 in 10.0 mi SW 17.3 mph 23.0 mph N/A   Mostly Cloudy
1:40 AM 81.3 °F 85.9 °F 72.1 °F 74% 29.82 in 10.0 mi South 18.4 mph 21.9 mph N/A   Mostly Cloudy
2:00 AM 78.4 °F - 72.9 °F 83% 29.81 in 10.0 mi South 9.2 mph - N/A   Scattered Clouds
2:20 AM 78.1 °F - 72.5 °F 83% 29.79 in 10.0 mi South 5.8 mph - N/A   Clear
2:39 AM 78.3 °F - 72.7 °F 83% 29.78 in 10.0 mi South 5.8 mph - N/A   Clear
2:59 AM 78.3 °F - 72.9 °F 83% 29.78 in 10.0 mi South 6.9 mph - N/A   Clear
3:20 AM 80.2 °F 84.0 °F 71.8 °F 75% 29.78 in 10.0 mi SW 12.7 mph 19.6 mph N/A   Scattered Clouds
3:39 AM 79.9 °F - 71.6 °F 76% 29.78 in 10.0 mi WSW 15.0 mph 25.3 mph N/A   Mostly Cloudy
3:59 AM 79.3 °F - 71.6 °F 77% 29.78 in 10.0 mi WSW 16.1 mph 25.3 mph N/A   Overcast
4:19 AM 78.4 °F - 70.7 °F 77% 29.80 in 10.0 mi West 12.7 mph 20.7 mph N/A   Mostly Cloudy
4:39 AM 75.7 °F - 69.4 °F 81% 29.81 in 10.0 mi WNW 17.3 mph 25.3 mph N/A   Mostly Cloudy
4:59 AM 73.9 °F - 68.2 °F 82% 29.82 in 10.0 mi WNW 18.4 mph 25.3 mph N/A   Mostly Cloudy
5:19 AM 72.7 °F - 67.6 °F 84% 29.85 in 10.0 mi WNW 10.4 mph - N/A Rain Light Rain
5:39 AM 72.5 °F - 67.5 °F 84% 29.86 in 10.0 mi West 10.4 mph - N/A   Drizzle
5:41 AM 72.5 °F - 67.5 °F 84% 29.86 in 10.0 mi West 8.1 mph - N/A   Drizzle
5:45 AM 71.6 °F - 68.0 °F 88% 29.87 in 7.0 mi West 8.1 mph - N/A Rain Light Rain
6:50 AM 71.6 °F - 66.2 °F 83% 29.89 in 7.0 mi West 8.1 mph - N/A Rain Light Rain
7:50 AM 71.6 °F - 68.0 °F 88% 29.91 in 10.0 mi WNW 8.1 mph - N/A Rain Light Rain
8:50 AM 71.6 °F - 69.8 °F 94% 29.93 in 7.0 mi NNW 4.6 mph - N/A Rain Light Rain
9:50 AM 71.6 °F - 69.8 °F 94% 29.91 in 7.0 mi NW 8.1 mph - N/A Rain Light Rain
10:50 AM 73.4 °F - 69.8 °F 88% 29.91 in 10.0 mi NW 4.6 mph - N/A Rain Light Rain
11:50 AM 73.4 °F - 68.0 °F 83% 29.92 in 10.0 mi West 5.8 mph - N/A   Scattered Clouds
12:50 PM 73.4 °F - 68.0 °F 83% 29.93 in 10.0 mi West 4.6 mph - N/A   Scattered Clouds
1:47 PM 73.4 °F - 69.8 °F 88% 29.93 in 10.0 mi WSW 4.6 mph - N/A Rain Light Rain
2:45 PM 73.4 °F - 66.2 °F 78% 29.92 in 10.0 mi NW 3.5 mph - N/A Rain Light Rain
3:50 PM 73.4 °F - 68.0 °F 83% 29.92 in 2.5 mi West 3.5 mph - N/A Rain Light Rain
4:50 PM 71.6 °F - 69.8 °F 94% 29.90 in 5.0 mi ESE 4.6 mph - N/A Rain Light Rain
5:50 PM 71.6 °F - 69.8 °F 94% 29.90 in 7.0 mi East 4.6 mph - N/A Rain Light Rain
6:50 PM 71.6 °F - 69.8 °F 94% 29.91 in 7.0 mi Calm Calm - N/A Rain Light Rain
7:50 PM 71.6 °F - 69.8 °F 94% 29.91 in 7.0 mi Calm Calm - N/A Rain Light Rain
8:45 PM 69.8 °F - 69.8 °F 100% 29.90 in 10.0 mi Calm Calm - N/A   Clear
9:45 PM 69.8 °F - 69.8 °F 100% 29.91 in 10.0 mi Calm Calm - N/A   Scattered Clouds
10:19 PM 70.0 °F - 68.9 °F 96% 29.91 in 7.0 mi Calm Calm - N/A   Scattered Clouds
10:39 PM 69.8 °F - 68.9 °F 97% 29.91 in 10.0 mi Calm Calm - N/A   Scattered Clouds
10:59 PM 69.8 °F - 68.7 °F 96% 29.92 in 7.0 mi Calm Calm - N/A   Scattered Clouds
11:19 PM 69.8 °F - 68.7 °F 96% 29.91 in 7.0 mi Calm Calm - N/A   Scattered Clouds
11:39 PM 69.6 °F - 68.5 °F 96% 29.91 in 7.0 mi Calm Calm - N/A   Scattered Clouds
11:59 PM 69.8 °F - 68.5 °F 96% 29.91 in 7.0 mi Calm Calm - N/A   Scattered Clouds